This is the latest recevied weather packets stored in our database for station/object JF2ZGN-13. If no packets are shown the sender has not sent any weather packets the latest 10 day(s).
| Time | Temp. | Humidity | Pressure | Rain* | Wind** | Luminosity | Snow |
|---|---|---|---|---|---|---|---|
| 1787888980 | 22.22° C | 56% | 905.5 hPa | 13.97 mm | - | - | - |
| 1787888380 | 22.22° C | 59% | 905.2 hPa | 13.97 mm | - | - | - |
| 1787887779 | 21.11° C | 63% | 905.2 hPa | 13.97 mm | - | - | - |
| 1787887179 | 21.67° C | 67% | 905 hPa | 13.97 mm | - | - | - |
| 1787886578 | 21.67° C | 65% | 904.7 hPa | 13.97 mm | - | - | - |
| 1787885978 | 21.67° C | 65% | 904.9 hPa | 13.97 mm | - | - | - |
| 1787885377 | 21.67° C | 65% | 905.1 hPa | 13.97 mm | - | - | - |
| 1787884777 | 21.67° C | 64% | 905.2 hPa | 13.97 mm | - | - | - |
| 1787884177 | 21.67° C | 64% | 905.1 hPa | 13.97 mm | - | - | - |
| 1787883576 | 21.67° C | 62% | 905.6 hPa | 13.97 mm | - | - | - |
| 1787882975 | 21.67° C | 60% | 905.4 hPa | 13.97 mm | - | - | - |
| 1787881775 | 21.67° C | 59% | 905.7 hPa | 13.97 mm | - | - | - |
| 1787881175 | 21.67° C | 61% | 905.7 hPa | 13.97 mm | - | - | - |
| 1787880574 | 21.67° C | 59% | 905.6 hPa | 13.97 mm | - | - | - |
| 1787879972 | 22.78° C | 59% | 905 hPa | 13.97 mm | - | - | - |
| 1787879373 | 22.22° C | 65% | 905.6 hPa | 13.97 mm | - | - | - |
| 1787878773 | 21.67° C | 69% | 906.1 hPa | 13.97 mm | - | - | - |
| 1787878171 | 21.67° C | 67% | 906.6 hPa | 13.97 mm | - | - | - |
| 1787877571 | 21.67° C | 67% | 906.1 hPa | 13.97 mm | - | - | - |
| 1787876970 | 21.67° C | 65% | 905.9 hPa | 13.97 mm | - | - | - |
| 1787876370 | 21.67° C | 57% | 905.8 hPa | 13.97 mm | - | - | - |
| 1787875770 | 21.67° C | 56% | 905.6 hPa | 13.97 mm | - | - | - |
| 1787875169 | 21.67° C | 52% | 905.5 hPa | 13.97 mm | - | - | - |
| 1787874569 | 21.67° C | 52% | 905.2 hPa | 13.97 mm | - | - | - |
| 1787873968 | 21.67° C | 49% | 905.7 hPa | 13.97 mm | - | - | - |
* Rain since midnight (hover to see other rain measurements)
** Current wind speed in m/s (hover to see current wind gust speed)